Location: Dreilärchen
(47.9312°N, 8.6113°E)
Time: 20:38:07
(UTC+00:00)

USA 215 - Pass Details

Date: 26 May 2022
Orbit: 1099 x 1108 km, 123.0° (Epoch: 10 June)

Event Time Altitude Azimuth Distance (km) Brightness Sun altitude
Rises 00:17:15 0° 58° (ENE) 3,924 6.8 -19.9°
Reaches altitude 10° 00:19:47 10° 54° (NE) 2,966 6.2 -19.8°
Maximum altitude 00:26:05 53° 340° (NNW) 1,341 4.0 -19.5°
Drops below altitude 10° 00:32:23 10° 267° (W) 2,966 5.3 -19.2°
Sets 00:34:56 0° 262° (W) 3,924 5.9 -19.1°
